User: anonymous   Login
Location: The Saddle
(36.8333°N, 80.3417°W)
Time: 16:01:41
(UTC-05:00)
Language:

Transit 2A Rocket - Orbit

View from above orbital plane
View from above orbital plane
View from above satellite
View from above satellite

Ground track
Ground track

The orbit data is extracted from the following two-line orbital elements,

1    47U 60007C   22025.20185679  .00000064  00000-0  38989-4 0  9994
2    47  66.6661  25.9659 0233490 235.1014 122.7949 14.42225534219724
Epoch (UTC): 25 January 2022 04:50:40
Eccentricity: 0.0233490
inclination: 66.6661°
perigee height: 584 km
apogee height: 917 km
right ascension of ascending node: 25.9659°
argument of perigee: 235.1014°
revolutions per day: 14.42225534
mean anomaly at epoch: 122.7949°
orbit number at epoch: 21972

The dashed part of the orbit path shows where the satellite is in the earth's shadow,  

DLR